| time (UTC) | temp F | wind direction | speed MPH | gust MPH | rain 1hr in | rain 24hr in | rain mn in | humidity % | barometer mb |
| 20260507211557 | 55 | 149 | 5.0 | 9.0 | 0.10 | 0.36 | 0.36 | 98 | 1001.4 |
| 20260507210103 | 55 | 158 | 4.0 | 9.0 | 0.10 | 0.34 | 0.34 | 98 | 1001.2 |
| 20260507204551 | 54 | 150 | 7.0 | 11.0 | 0.10 | 0.32 | 0.32 | 98 | 1001.4 |
| 20260507203101 | 54 | 170 | 5.0 | 11.0 | 0.10 | 0.29 | 0.29 | 98 | 1001.2 |
| 20260507201552 | 54 | 145 | 5.0 | 11.0 | 0.10 | 0.26 | 0.26 | 98 | 1001.4 |
| 20260507200053 | 54 | 140 | 5.0 | 15.0 | 0.10 | 0.24 | 0.24 | 98 | 1000.4 |
| 20260507194554 | 54 | 138 | 7.0 | 16.0 | 0.09 | 0.21 | 0.21 | 98 | 1000.6 |
| 20260507193049 | 54 | 140 | 6.0 | 13.0 | 0.10 | 0.19 | 0.19 | 99 | 1001.4 |
| 20260507191552 | 54 | 156 | 6.0 | 15.0 | 0.09 | 0.16 | 0.16 | 98 | 1001.9 |
| 20260507190052 | 54 | 117 | 8.0 | 16.0 | 0.09 | 0.14 | 0.14 | 98 | 1003.1 |
| 20260507184552 | 54 | 110 | 8.0 | 13.0 | 0.08 | 0.12 | 0.12 | 98 | 1003.4 |
| 20260507183055 | 54 | 131 | 7.0 | 13.0 | 0.07 | 0.09 | 0.09 | 98 | 1003.3 |
| 20260507181555 | 54 | 98 | 7.0 | 15.0 | 0.06 | 0.07 | 0.07 | 98 | 1004.1 |
| 20260507180058 | 55 | 153 | 9.0 | 17.0 | 0.05 | 0.05 | 0.05 | 98 | 1004.0 |
| 20260507174607 | 55 | 119 | 9.0 | 19.0 | 0.04 | 0.04 | 0.04 | 97 | 1004.3 |
| 20260507173054 | 55 | 158 | 11.0 | 19.0 | 0.02 | 0.02 | 0.02 | 97 | 1004.6 |
| 20260507171605 | 55 | 132 | 11.0 | 20.0 | 0.01 | 0.01 | 0.01 | 96 | 1004.5 |
| 20260507170053 | 56 | 121 | 13.0 | 29.0 | 0.00 | 0.00 | 0.00 | 94 | 1003.6 |
| 20260507164552 | 57 | 144 | 17.0 | 28.0 | 0.00 | 0.00 | 0.00 | 91 | 1003.5 |
| 20260507163100 | 58 | 148 | 17.0 | 31.0 | 0.00 | 0.00 | 0.00 | 89 | 1003.5 |
| 20260507161559 | 58 | 170 | 18.0 | 29.0 | 0.00 | 0.00 | 0.00 | 89 | 1003.9 |
| 20260507160055 | 59 | 165 | 17.0 | 34.0 | 0.00 | 0.00 | 0.00 | 88 | 1003.9 |
| 20260507154552 | 60 | 175 | 21.0 | 37.0 | 0.00 | 0.00 | 0.00 | 86 | 1004.3 |
| 20260507153101 | 60 | 158 | 20.0 | 36.0 | 0.00 | 0.00 | 0.00 | 86 | 1004.6 |
| 20260507151553 | 60 | 131 | 23.0 | 43.0 | 0.00 | 0.00 | 0.00 | 86 | 1005.0 |
| 20260507150057 | 60 | 157 | 20.0 | 36.0 | 0.00 | 0.00 | 0.00 | 86 | 1005.2 |
| 20260507144557 | 60 | 175 | 20.0 | 34.0 | 0.00 | 0.00 | 0.00 | 85 | 1005.8 |
| 20260507143054 | 60 | 152 | 13.0 | 33.0 | 0.00 | 0.00 | 0.00 | 84 | 1006.1 |
| 20260507141552 | 60 | 157 | 21.0 | 48.0 | 0.00 | 0.00 | 0.00 | 85 | 1006.2 |
| 20260507140108 | 60 | 137 | 16.0 | 32.0 | 0.00 | 0.00 | 0.00 | 86 | 1006.4 |
| 20260507134557 | 59 | 133 | 17.0 | 35.0 | 0.00 | 0.00 | 0.00 | 88 | 1006.5 |
| 20260507133104 | 59 | 119 | 18.0 | 34.0 | 0.00 | 0.00 | 0.00 | 88 | 1006.5 |
| 20260507131553 | 59 | 170 | 18.0 | 32.0 | 0.00 | 0.00 | 0.00 | 88 | 1006.8 |
| 20260507130105 | 59 | 106 | 21.0 | 35.0 | 0.00 | 0.00 | 0.00 | 87 | 1007.0 |
| 20260507124633 | 59 | 165 | 21.0 | 43.0 | 0.00 | 0.00 | 0.00 | 86 | 1007.4 |
| 20260507123053 | 59 | 127 | 22.0 | 37.0 | 0.00 | 0.00 | 0.00 | 86 | 1007.2 |
| 20260507121600 | 58 | 134 | 13.0 | 27.0 | 0.00 | 0.00 | 0.00 | 91 | 1007.8 |
| 20260507120055 | 57 | 155 | 15.0 | 27.0 | 0.00 | 0.00 | 0.00 | 92 | 1007.4 |
| 20260507114612 | 57 | 131 | 17.0 | 28.0 | 0.00 | 0.00 | 0.00 | 94 | 1007.5 |
| 20260507113058 | 56 | 148 | 17.0 | 28.0 | 0.00 | 0.00 | 0.00 | 95 | 1007.8 |
| 20260507111558 | 55 | 170 | 14.0 | 24.0 | 0.00 | 0.00 | 0.00 | 96 | 1008.3 |
| 20260507110054 | 55 | 92 | 13.0 | 22.0 | 0.00 | 0.00 | 0.00 | 95 | 1008.7 |
| 20260507104558 | 55 | 151 | 14.0 | 25.0 | 0.00 | 0.00 | 0.00 | 95 | 1008.8 |
| 20260507103054 | 56 | 161 | 13.0 | 26.0 | 0.00 | 0.00 | 0.00 | 95 | 1008.8 |
| 20260507101559 | 55 | 130 | 14.0 | 25.0 | 0.00 | 0.00 | 0.00 | 95 | 1008.9 |
| 20260507100058 | 55 | 121 | 12.0 | 26.0 | 0.00 | 0.00 | 0.00 | 95 | 1009.0 |
| 20260507094557 | 55 | 152 | 12.0 | 20.0 | 0.00 | 0.00 | 0.00 | 95 | 1009.2 |
| 20260507093056 | 55 | 108 | 11.0 | 20.0 | 0.00 | 0.00 | 0.00 | 96 | 1009.8 |
| 20260507091550 | 54 | 156 | 9.0 | 19.0 | 0.00 | 0.00 | 0.00 | 96 | 1009.6 |
| 20260507090051 | 54 | 150 | 9.0 | 18.0 | 0.00 | 0.00 | 0.00 | 96 | 1009.2 |
| 20260507084555 | 54 | 133 | 13.0 | 23.0 | 0.00 | 0.00 | 0.00 | 95 | 1010.0 |
| 20260507083056 | 54 | 120 | 14.0 | 23.0 | 0.00 | 0.00 | 0.00 | 95 | 1010.2 |
| 20260507081551 | 54 | 142 | 12.0 | 22.0 | 0.00 | 0.00 | 0.00 | 94 | 1010.4 |
| 20260507080056 | 54 | 114 | 13.0 | 20.0 | 0.00 | 0.00 | 0.00 | 94 | 1010.3 |
| 20260507074606 | 54 | 150 | 11.0 | 23.0 | 0.00 | 0.00 | 0.00 | 94 | 1010.5 |
| 20260507073054 | 54 | 154 | 7.0 | 19.0 | 0.00 | 0.00 | 0.00 | 93 | 1010.4 |
| 20260507071554 | 54 | 121 | 8.0 | 18.0 | 0.00 | 0.00 | 0.00 | 93 | 1011.1 |
| 20260507070109 | 54 | 123 | 11.0 | 18.0 | 0.00 | 0.00 | 0.00 | 93 | 1011.7 |
| 20260507064601 | 54 | 143 | 11.0 | 20.0 | 0.00 | 0.00 | 0.00 | 92 | 1012.0 |
| 20260507063058 | 55 | 125 | 10.0 | 20.0 | 0.00 | 0.00 | 0.00 | 91 | 1012.0 |
| 20260507061553 | 54 | 137 | 8.0 | 21.0 | 0.00 | 0.00 | 0.00 | 91 | 1012.0 |
| 20260507060055 | 54 | 160 | 6.0 | 16.0 | 0.00 | 0.00 | 0.00 | 89 | 1011.9 |
| 20260507054557 | 54 | 158 | 7.0 | 19.0 | 0.00 | 0.00 | 0.00 | 88 | 1011.9 |
| 20260507053059 | 54 | 165 | 7.0 | 14.0 | 0.00 | 0.00 | 0.00 | 86 | 1012.5 |
| 20260507051600 | 54 | 165 | 8.0 | 15.0 | 0.00 | 0.00 | 0.00 | 83 | 1012.9 |
| 20260507050056 | 54 | 108 | 8.0 | 14.0 | 0.00 | 0.00 | 0.00 | 84 | 1013.5 |
| 20260507044554 | 54 | 165 | 6.0 | 13.0 | 0.00 | 0.00 | 0.00 | 84 | 1014.1 |
| 20260507043054 | 54 | 136 | 7.0 | 14.0 | 0.00 | 0.00 | 0.00 | 85 | 1014.3 |
| 20260507041556 | 54 | 143 | 5.0 | 18.0 | 0.00 | 0.00 | 0.00 | 85 | 1014.5 |
| 20260507034552 | 54 | 170 | 6.0 | 13.0 | 0.00 | 0.00 | 0.00 | 87 | 1015.4 |
| 20260507033056 | 54 | 165 | 5.0 | 11.0 | 0.00 | 0.00 | 0.00 | 87 | 1015.7 |
| 20260507031604 | 53 | 151 | 5.0 | 10.0 | 0.00 | 0.00 | 0.00 | 87 | 1015.8 |
| 20260507030053 | 54 | 191 | 5.0 | 11.0 | 0.00 | 0.00 | 0.00 | 87 | 1016.1 |
| 20260507024552 | 54 | 147 | 7.0 | 12.0 | 0.00 | 0.00 | 0.00 | 86 | 1016.3 |
| 20260507023052 | 54 | 145 | 3.0 | 12.0 | 0.00 | 0.00 | 0.00 | 86 | 1016.4 |
| 20260507021553 | 55 | 155 | 5.0 | 10.0 | 0.00 | 0.00 | 0.00 | 85 | 1016.5 |
| 20260507020055 | 55 | 148 | 8.0 | 13.0 | 0.00 | 0.00 | 0.00 | 85 | 1016.6 |
| 20260507014557 | 55 | 139 | 8.0 | 15.0 | 0.00 | 0.00 | 0.00 | 84 | 1016.6 |
| 20260507013111 | 55 | 151 | 7.0 | 13.0 | 0.00 | 0.00 | 0.00 | 84 | 1016.8 |
| 20260507011552 | 56 | 142 | 7.0 | 14.0 | 0.00 | 0.00 | 0.00 | 84 | 1017.0 |
| 20260507004554 | 56 | 146 | 10.0 | 17.0 | 0.00 | 0.00 | 0.00 | 82 | 1017.3 |
| 20260507003052 | 57 | 114 | 9.0 | 20.0 | 0.00 | 0.00 | 0.00 | 81 | 1017.2 |
| 20260507001557 | 58 | 146 | 10.0 | 19.0 | 0.00 | 0.00 | 0.00 | 81 | 1017.2 |
| 20260507000055 | 58 | 158 | 11.0 | 20.0 | 0.00 | 0.00 | 0.00 | 80 | 1017.2 |
| 20260506234554 | 59 | 152 | 12.0 | 21.0 | 0.00 | 0.00 | 0.00 | 79 | 1017.2 |
| 20260506233104 | 60 | 111 | 10.0 | 21.0 | 0.00 | 0.00 | 0.00 | 78 | 1016.9 |
| 20260506231600 | 60 | 165 | 11.0 | 22.0 | 0.00 | 0.00 | 0.00 | 78 | 1016.7 |
| 20260506230104 | 61 | 108 | 9.0 | 19.0 | 0.00 | 0.00 | 0.00 | 77 | 1016.6 |
| 20260506224556 | 61 | 151 | 8.0 | 18.0 | 0.00 | 0.00 | 0.00 | 75 | 1016.3 |
| 20260506223055 | 62 | 121 | 10.0 | 19.0 | 0.00 | 0.00 | 0.00 | 74 | 1016.0 |
| 20260506221600 | 62 | 104 | 9.0 | 24.0 | 0.00 | 0.00 | 0.00 | 73 | 1016.1 |
| 20260506220056 | 62 | 143 | 12.0 | 22.0 | 0.00 | 0.00 | 0.00 | 72 | 1016.2 |
| 20260506214600 | 63 | 154 | 11.0 | 22.0 | 0.00 | 0.00 | 0.00 | 71 | 1016.1 |
| 20260506213052 | 63 | 128 | 8.0 | 21.0 | 0.00 | 0.00 | 0.00 | 70 | 1016.3 |